User: anonymous   Login
Location: Bouysse
(45.3674°N, 1.8947°E)
Time: 12:11:20
(UTC+00:00)
Language:

Cosmos-2242 - Orbit

View from above orbital plane
View from above orbital plane
View from above satellite
View from above satellite

Ground track
Ground track

The orbit data is extracted from the following two-line orbital elements,

1 22626U 93024A   20227.18537212  .00000142  00000-0  12719-4 0  9999
2 22626  82.5211  33.5508 0017488 247.7706 112.1657 14.88012875477740
Epoch (UTC): 14 August 2020 04:26:56
Eccentricity: 0.0017488
inclination: 82.5211°
perigee height: 592 km
apogee height: 616 km
right ascension of ascending node: 33.5508°
argument of perigee: 247.7706°
revolutions per day: 14.88012875
mean anomaly at epoch: 112.1657°
orbit number at epoch: 47774

The dashed part of the orbit path shows where the satellite is in the earth's shadow,  

DLR